Skip Page Navigation
NASA JPL Caltech
NASA Logo - Jet Propulsion Laboratory + View the NASA Portal
+ Center for Near-Earth Object Studies
JPL Home Earth Solar System Stars & Galaxies Technology
JPL Solar System Dynamics
BODIES ORBITS EPHEMERIDES TOOLS PHYSICAL DATA DISCOVERY FAQ SITE MAP
IMPORTANT: The SSD Announcement email list is now available. Major changes are coming in the near future, including possible hostname and/or URL changes. To be notified of such changes, subscribe to this email list.

Please visit this page for more details.


JPL Small-Body Database Browser
Search: [ help ]  
469594 (2004 EV69)
Classification: Main-belt Asteroid          SPK-ID: 2469594
Ephemeris | Orbit Diagram | Orbital Elements | Mission Design | Physical Parameters | Discovery Circumstances ]

[ show orbit diagram ]
Orbital Elements at Epoch 2458600.5 (2019-Apr-27.0) TDB
Reference: JPL 16 (heliocentric ecliptic J2000)
 Element Value Uncertainty (1-sigma)   Units 
e .1614178617669885 6.8851e-08  
a 2.41678587018141 1.7172e-08 au
q 2.026673462668056 1.6742e-07 au
i 2.45152614729369 8.813e-06 deg
node 1.043125851056291 0.00016036 deg
peri 200.2922727228663 0.00016278 deg
M 348.5948625791341 2.6325e-05 deg
tp 2458643.976413267080
(2019-Jun-09.47641327)
0.00010042 TDB
period 1372.320928594348
3.76
1.4626e-05
4.004e-08
d
yr
n .2623293083264013 2.7959e-09 deg/d
Q 2.806898277694764 1.9944e-08 au
  Orbit Determination Parameters
   # obs. used (total)      107  
   data-arc span      5570 days (15.25 yr)  
   first obs. used      2004-02-26  
   last obs. used      2019-05-28  
   planetary ephem.      DE431  
   SB-pert. ephem.      SB431-N16  
   condition code      0  
   norm. resid. RMS      .55293  
   source      ORB  
   producer      Otto Matic  
   solution date      2019-Sep-24 08:02:35  

Additional Information
 Earth MOID = 1.02433 au 
 Jupiter MOID = 2.15471 au 
 T_jup = 3.497 
[ show covariance matrix ]

Ephemeris | Orbit Diagram | Orbital Elements | Mission Design | Physical Parameters | Discovery Circumstances ]

Physical Parameter Table
Parameter Symbol Value Units Sigma Reference Notes
absolute magnitude H 17.6   n/a MPO428111  

469594 (2004 EV69)          Discovered 2004-Feb-26 by LINEAR at Socorro
Reference: Last Updated: 2016-08-22
Ephemeris | Orbit Diagram | Orbital Elements | Mission Design | Physical Parameters | Discovery Circumstances ]
ABOUT SSD CREDITS/AWARDS PRIVACY/COPYRIGHT GLOSSARY LINKS
FirstGov
(server date/time)  
NASA Home Page
Site Manager:   Ryan S. Park
Webmaster  Alan B. Chamberlin